Regional Weather Roundup
Issued by NWS

Home | Current Version | Previous Version | Text Only | Print | Product List | Glossary On
Versions: 1 2 3 4 5 6 7 8 9 10 11 12 13 14 15 16 17 18 19 20 21 22 23 24 25 26 27 28 29 30 31 32 33 34 35 36 37 38 39 40 41 42 43 44 45 46 47 48 49 50
253
ASUS44 KJAN 240310
RWRMS

MISSISSIPPI HOURLY WEATHER ROUNDUP
NATIONAL WEATHER SERVICE JACKSON MS
1000 PM CDT THU OCT 23 2014

NOTE: "FAIR: INDICATES FEW OR NO CLOUDS BELOW 12,000 FEET WITH NO
SIGNIFICANT WEATHER AND/OR OBSTRUCTIONS TO VISIBILITY.

MSZ001>002-007>008-010>013-018>021-025>028-034>036-240400-
NORTHWEST MISSISSIPPI

CITY           SKY/WX    TMP DP  RH WIND       PRES   REMARKS
CLARKSDALE     FAIR      52  48  87 SW3       30.15S
CLEVELAND      FAIR      49  47  95 N5        30.13S
GREENWOOD      PTCLDY    53  49  86 CALM      30.13S
GREENVILLE     CLEAR     47  45  93 NE5       30.13F
GRENADA          N/A    N/A N/A N/A MISG        N/A
OLIVE BRANCH   CLEAR     52  50  93 CALM      30.13F
OXFORD         FAIR      48  46  93 CALM      30.16R
TUNICA         CLOUDY    50  48  93 CALM      30.15R
$$

MSZ003>006-009-014>017-022>024-029>033-037>039-240400-
NORTHEAST MISSISSIPPI

CITY           SKY/WX    TMP DP  RH WIND       PRES   REMARKS
COLUMBUS AFB   CLOUDY    55  49  80 N3        30.11S
CORINTH        FAIR      55  46  71 NW5       30.13R
GOLDN TRIANGLE CLOUDY    55  46  71 NW5       30.12S
STARKVILLE     FAIR      54  50  87 CALM      30.12S
TUPELO         CLOUDY    57  48  72 CALM      30.14R
$$

MSZ040-058-240400-
CENTRAL MISSISSIPPI

CITY           SKY/WX    TMP DP  RH WIND       PRES   REMARKS
JACKSON INTL   CLEAR     52  48  86 CALM      30.14R
JACKSON HAWKNS PTCLDY    54  49  83 CALM      30.13R
MERIDIAN KEY   PTCLDY    53  48  83 CALM      30.12R
MERIDIAN NAS   PTCLDY    54  47  77 W5        30.13R
RAYMOND        FAIR      48  45  87 CALM      30.13S
VICKSBURG      CLEAR     49  47  93 CALM      30.14S
$$

MSZ059>079-240400-
SOUTH MISSISSIPPI

CITY           SKY/WX    TMP DP  RH WIND       PRES   REMARKS
BROOKHAVEN     FAIR      54  52  94 CALM      30.13S
COLUMBIA         N/A    N/A N/A N/A MISG        N/A
HATTIESBURG    PTCLDY    58  51  78 NW3       30.11R
MCCOMB         PTCLDY    59  49  69 N6        30.11S
NATCHEZ        CLEAR     54  48  82 N3        30.13S
PINE BELT      PTCLDY    55  46  71 N7        30.11S
$$

MSZ080>082-240400-
COASTAL MISSISSIPPI

CITY           SKY/WX    TMP DP  RH WIND       PRES   REMARKS
BILOXI         CLOUDY    65  48  54 N5        30.08R
PASCAGOULA     CLOUDY    54  52  93 CALM      30.08R
GULFPORT       CLOUDY    64  49  57 N5        30.07S
$$



USA.gov is the U.S. government's official web portal to all federal, state and local government web resources and services.